C/2019 F2 ( ATLAS )

Japanese version
Home page
Updated on July 9, 2019

---------------------------------------------------------------------

* Profile

Discovery Date March 26, 2019
Magnitude 17.5 mag
Discoverer Asteroid Terrestrial-Impact Last Alert System (ATLAS) search program

* Pictures

* Orbital Elements

Epoch 2019 Aug. 25.0 TT = JDT 2458720.5
T 2019 Sept. 8.90675 TT                                 MPCW
q   2.2327848            (2000.0)            P               Q
n   0.01466354     Peri.   10.95852     -0.99214558     +0.12282864
a  16.5314206      Node   175.87014     -0.12427785     -0.98941574
e   0.8649369      Incl.   19.18823     +0.01421846     -0.07726327
P  67.21
From 565 observations 2019 Feb. 26-May 24, mean residual 0".4.

* Finding Charts

* Magnitudes Graph

        m1 = 11.0 + 5 log d + 10.0 log r

---------------------------------------------------------------------

The orbital elements are published on M.P.E.C. 2019-L24.
The charts are made with StellaNavigator Ver.10 (AstroArts).
The magnitudes graphs are made with Comet for Windows.

---------------------------------------------------------------------

Copyright(C) Seiichi Yoshida (comet@aerith.net). All rights reserved.